Tracking 31027 objects as of 19-Jul-2025
HD Live streaming from Space Station
objects crossing your sky now

STARLINK-5839

Track STARLINK-5839 now!
10-day predictions
STARLINK-5839 is classified as:


NORAD ID: 57051
Int'l Code: 2023-088D
Perigee: 565.2 km
Apogee: 567.1 km
Inclination: 43.0 °
Period: 95.8 minutes
Semi major axis: 6937 km
RCS: Unknown
Launch date: June 22, 2023
Source: United States (US)
Launch site: AIR FORCE WESTERN TEST RANGE (AFWTR)
Your satellite tracking list
Your tracking list is empty




NASA's NSSDC Master Catalog

Two Line Element Set (TLE):
1 57051U 23088D   25199.66485466  .00002103  00000-0  17065-3 0  9998
2 57051  43.0047 299.3309 0001370 257.3883 102.6806 15.02549995114266
Source of the keplerian elements: AFSPC